Time,TemperatureF,DewpointF,PressureIn,WindDirection,WindDirectionDegrees,WindSpeedMPH,WindSpeedGustMPH,Humidity,HourlyPrecipIn,Conditions,Clouds,dailyrainin,SoftwareType,DateUTC
2013-10-04 00:44:00,68.1,67.0,30.10,SE,125,0.0,0.0,97,0.00,,,0.00,weatherlink.com 1.10,2013-10-04 04:44:00,
2013-10-04 00:59:00,67.3,67.0,30.09,SE,125,0.0,0.0,97,0.00,,,0.00,weatherlink.com 1.10,2013-10-04 04:59:00,
2013-10-04 01:14:00,67.4,67.0,30.09,SE,125,0.0,0.0,97,0.00,,,0.00,weatherlink.com 1.10,2013-10-04 05:14:00,
2013-10-04 01:29:00,66.7,66.0,30.09,SE,125,0.0,0.0,97,0.00,,,0.00,weatherlink.com 1.10,2013-10-04 05:29:00,
2013-10-04 01:44:00,66.1,65.0,30.09,SE,125,0.0,0.0,97,0.00,,,0.00,weatherlink.com 1.10,2013-10-04 05:44:00,
2013-10-04 01:59:00,66.5,66.0,30.09,SE,125,0.0,0.0,98,0.00,,,0.00,weatherlink.com 1.10,2013-10-04 05:59:00,
2013-10-04 02:14:00,66.3,66.0,30.09,SE,125,0.0,0.0,98,0.00,,,0.00,weatherlink.com 1.10,2013-10-04 06:14:00,
2013-10-04 02:29:00,66.6,66.0,30.09,SE,125,0.0,0.0,98,0.00,,,0.00,weatherlink.com 1.10,2013-10-04 06:29:00,
2013-10-04 02:44:00,66.3,66.0,30.09,SE,125,0.0,0.0,98,0.00,,,0.00,weatherlink.com 1.10,2013-10-04 06:44:00,
2013-10-04 02:59:00,66.2,66.0,30.08,SE,125,0.0,0.0,98,0.00,,,0.00,weatherlink.com 1.10,2013-10-04 06:59:00,
2013-10-04 03:14:00,66.1,66.0,30.09,SE,125,0.0,0.0,98,0.00,,,0.00,weatherlink.com 1.10,2013-10-04 07:14:00,
2013-10-04 03:29:00,65.8,65.0,30.09,SE,125,0.0,0.0,98,0.00,,,0.00,weatherlink.com 1.10,2013-10-04 07:29:00,
2013-10-04 03:44:00,65.5,65.0,30.08,SE,125,0.0,0.0,98,0.00,,,0.00,weatherlink.com 1.10,2013-10-04 07:44:00,
2013-10-04 03:59:00,65.5,65.0,30.09,SE,125,0.0,0.0,98,0.00,,,0.00,weatherlink.com 1.10,2013-10-04 07:59:00,
2013-10-04 04:14:00,65.5,65.0,30.08,SE,125,0.0,0.0,98,0.00,,,0.00,weatherlink.com 1.10,2013-10-04 08:14:00,
2013-10-04 04:29:00,65.5,65.0,30.09,SE,125,0.0,0.0,98,0.00,,,0.00,weatherlink.com 1.10,2013-10-04 08:29:00,
2013-10-04 04:44:00,66.2,66.0,30.09,SE,125,0.0,0.0,98,0.00,,,0.00,weatherlink.com 1.10,2013-10-04 08:44:00,
2013-10-04 04:59:00,66.4,66.0,30.09,SE,125,0.0,0.0,98,0.00,,,0.00,weatherlink.com 1.10,2013-10-04 08:59:00,
2013-10-04 05:14:00,66.5,66.0,30.08,SE,125,0.0,0.0,98,0.00,,,0.00,weatherlink.com 1.10,2013-10-04 09:14:00,
2013-10-04 05:29:00,66.6,66.0,30.09,SE,125,0.0,0.0,98,0.00,,,0.00,weatherlink.com 1.10,2013-10-04 09:29:00,
2013-10-04 05:44:00,66.6,66.0,30.09,NNW,337,0.0,1.0,98,0.00,,,0.00,weatherlink.com 1.10,2013-10-04 09:44:00,
2013-10-04 05:59:00,66.5,66.0,30.09,NNW,336,0.0,0.0,98,0.00,,,0.00,weatherlink.com 1.10,2013-10-04 09:59:00,
2013-10-04 06:14:00,66.9,66.0,30.09,NNW,336,0.0,1.0,98,0.00,,,0.00,weatherlink.com 1.10,2013-10-04 10:14:00,
2013-10-04 06:29:00,66.8,66.0,30.09,NNW,337,0.0,0.0,98,0.00,,,0.00,weatherlink.com 1.10,2013-10-04 10:29:00,
2013-10-04 06:45:00,66.7,66.0,30.10,NNW,337,0.0,1.0,98,0.00,,,0.00,weatherlink.com 1.10,2013-10-04 10:45:00,
2013-10-04 06:59:00,66.9,66.0,30.10,NNW,337,0.0,0.0,98,0.00,,,0.00,weatherlink.com 1.10,2013-10-04 10:59:00,
2013-10-04 07:14:00,66.9,66.0,30.11,NNW,337,0.0,0.0,98,0.00,,,0.00,weatherlink.com 1.10,2013-10-04 11:14:00,
2013-10-04 07:29:00,67.1,67.0,30.11,NNW,337,0.0,1.0,98,0.00,,,0.00,weatherlink.com 1.10,2013-10-04 11:29:00,
2013-10-04 07:44:00,67.3,67.0,30.11,NNW,337,0.0,0.0,98,0.00,,,0.00,weatherlink.com 1.10,2013-10-04 11:44:00,
2013-10-04 07:59:00,67.5,67.0,30.12,NNW,338,0.0,0.0,98,0.00,,,0.00,weatherlink.com 1.10,2013-10-04 11:59:00,
2013-10-04 08:14:00,67.8,67.0,30.13,NNW,337,0.0,0.0,98,0.00,,,0.00,weatherlink.com 1.10,2013-10-04 12:14:00,
2013-10-04 08:29:00,68.0,68.0,30.13,North,357,0.0,0.0,98,0.00,,,0.00,weatherlink.com 1.10,2013-10-04 12:29:00,
2013-10-04 08:45:00,68.1,68.0,30.13,NNE,27,0.0,0.0,98,0.00,,,0.00,weatherlink.com 1.10,2013-10-04 12:45:00,
2013-10-04 09:00:00,68.1,68.0,30.13,North,360,0.0,1.0,98,0.00,,,0.00,weatherlink.com 1.10,2013-10-04 13:00:00,
2013-10-04 09:15:00,68.1,68.0,30.14,North,360,0.0,0.0,98,0.00,,,0.00,weatherlink.com 1.10,2013-10-04 13:15:00,
2013-10-04 09:30:00,68.9,68.0,30.14,NNE,28,0.0,0.0,98,0.00,,,0.00,weatherlink.com 1.10,2013-10-04 13:30:00,
2013-10-04 09:45:00,70.9,71.0,30.14,East,79,0.0,1.0,99,0.00,,,0.00,weatherlink.com 1.10,2013-10-04 13:45:00,
2013-10-04 10:00:00,72.8,72.0,30.14,ENE,58,0.0,2.0,98,0.00,,,0.00,weatherlink.com 1.10,2013-10-04 14:00:00,
2013-10-04 10:15:00,75.3,73.0,30.14,ENE,59,3.0,4.0,91,0.00,,,0.00,weatherlink.com 1.10,2013-10-04 14:15:00,
2013-10-04 10:30:00,78.2,73.0,30.14,NE,51,2.0,6.0,83,0.00,,,0.00,weatherlink.com 1.10,2013-10-04 14:30:00,
2013-10-04 10:45:00,79.9,71.0,30.14,NNE,30,2.0,5.0,75,0.00,,,0.00,weatherlink.com 1.10,2013-10-04 14:45:00,
2013-10-04 11:00:00,81.0,70.0,30.13,East,80,2.0,6.0,70,0.00,,,0.00,weatherlink.com 1.10,2013-10-04 15:00:00,
2013-10-04 11:15:00,81.6,71.0,30.13,ENE,58,5.0,7.0,70,0.00,,,0.00,weatherlink.com 1.10,2013-10-04 15:15:00,
2013-10-04 11:31:00,82.0,71.0,30.13,ENE,59,3.0,8.0,69,0.00,,,0.00,weatherlink.com 1.10,2013-10-04 15:31:00,
2013-10-04 11:45:00,82.4,71.0,30.13,ESE,107,1.0,7.0,69,0.00,,,0.00,weatherlink.com 1.10,2013-10-04 15:45:00,
2013-10-04 12:00:00,81.9,69.0,30.13,SSE,156,3.0,8.0,65,0.00,,,0.00,weatherlink.com 1.10,2013-10-04 16:00:00,
2013-10-04 12:15:00,83.5,69.0,30.13,NE,41,2.0,6.0,62,0.00,,,0.00,weatherlink.com 1.10,2013-10-04 16:15:00,
2013-10-04 12:30:00,83.3,70.0,30.12,SSW,209,0.0,8.0,64,0.00,,,0.00,weatherlink.com 1.10,2013-10-04 16:30:00,
2013-10-04 12:45:00,83.9,69.0,30.12,SE,145,5.0,8.0,62,0.00,,,0.00,weatherlink.com 1.10,2013-10-04 16:45:00,
2013-10-04 13:00:00,84.1,70.0,30.11,SE,132,5.0,8.0,62,0.00,,,0.00,weatherlink.com 1.10,2013-10-04 17:00:00,
2013-10-04 13:15:00,82.9,69.0,30.11,ESE,107,2.0,6.0,64,0.00,,,0.00,weatherlink.com 1.10,2013-10-04 17:15:00,
2013-10-04 13:30:00,82.1,69.0,30.10,SSE,168,2.0,6.0,65,0.00,,,0.00,weatherlink.com 1.10,2013-10-04 17:30:00,
2013-10-04 14:00:00,81.8,69.0,30.09,SE,138,4.0,5.0,65,0.00,,,0.00,weatherlink.com 1.10,2013-10-04 18:00:00,
2013-10-04 14:15:00,83.4,69.0,30.08,ENE,68,2.0,6.0,62,0.00,,,0.00,weatherlink.com 1.10,2013-10-04 18:15:00,
2013-10-04 14:30:00,83.3,69.0,30.07,SSE,161,2.0,8.0,63,0.00,,,0.00,weatherlink.com 1.10,2013-10-04 18:30:00,
2013-10-04 14:45:00,83.3,69.0,30.07,SSW,208,3.0,7.0,62,0.00,,,0.00,weatherlink.com 1.10,2013-10-04 18:45:00,
2013-10-04 15:00:00,83.7,68.0,30.07,SE,131,1.0,8.0,60,0.00,,,0.00,weatherlink.com 1.10,2013-10-04 19:00:00,
2013-10-04 15:15:00,82.7,69.0,30.07,SE,145,1.0,7.0,64,0.00,,,0.00,weatherlink.com 1.10,2013-10-04 19:15:00,
2013-10-04 15:30:00,83.4,70.0,30.07,East,87,6.0,7.0,65,0.00,,,0.00,weatherlink.com 1.10,2013-10-04 19:30:00,
2013-10-04 15:45:00,81.9,70.0,30.07,SSE,147,3.0,8.0,68,0.00,,,0.00,weatherlink.com 1.10,2013-10-04 19:45:00,
2013-10-04 16:00:00,81.5,71.0,30.07,East,80,6.0,11.0,70,0.00,,,0.00,weatherlink.com 1.10,2013-10-04 20:00:00,
2013-10-04 16:16:00,81.7,72.0,30.07,ESE,110,2.0,8.0,72,0.00,,,0.00,weatherlink.com 1.10,2013-10-04 20:16:00,
2013-10-04 16:31:00,81.3,70.0,30.06,East,82,3.0,8.0,69,0.00,,,0.00,weatherlink.com 1.10,2013-10-04 20:31:00,
2013-10-04 16:46:00,80.8,70.0,30.06,SE,130,2.0,8.0,70,0.00,,,0.00,weatherlink.com 1.10,2013-10-04 20:46:00,
2013-10-04 17:01:00,80.8,71.0,30.07,ESE,114,4.0,6.0,73,0.00,,,0.00,weatherlink.com 1.10,2013-10-04 21:01:00,
2013-10-04 17:16:00,80.3,71.0,30.06,SW,233,0.0,6.0,74,0.00,,,0.00,weatherlink.com 1.10,2013-10-04 21:16:00,
2013-10-04 17:31:00,79.4,71.0,30.06,ESE,112,2.0,8.0,75,0.00,,,0.00,weatherlink.com 1.10,2013-10-04 21:31:00,
2013-10-04 17:46:00,78.9,71.0,30.06,SE,129,1.0,6.0,76,0.00,,,0.00,weatherlink.com 1.10,2013-10-04 21:46:00,
2013-10-04 18:01:00,78.3,71.0,30.07,SSE,153,3.0,6.0,77,0.00,,,0.00,weatherlink.com 1.10,2013-10-04 22:01:00,
2013-10-04 18:16:00,77.9,71.0,30.07,SE,141,2.0,3.0,78,0.00,,,0.00,weatherlink.com 1.10,2013-10-04 22:16:00,
2013-10-04 18:31:00,77.4,71.0,30.07,SSE,156,2.0,6.0,80,0.00,,,0.00,weatherlink.com 1.10,2013-10-04 22:31:00,
2013-10-04 18:46:00,76.7,71.0,30.07,SSE,161,0.0,4.0,83,0.00,,,0.00,weatherlink.com 1.10,2013-10-04 22:46:00,
2013-10-04 19:01:00,76.0,72.0,30.07,South,187,0.0,3.0,87,0.00,,,0.00,weatherlink.com 1.10,2013-10-04 23:01:00,
2013-10-04 19:16:00,75.2,72.0,30.07,SW,223,0.0,0.0,89,0.00,,,0.00,weatherlink.com 1.10,2013-10-04 23:16:00,
2013-10-04 19:31:00,74.3,71.0,30.07,SW,223,0.0,0.0,90,0.00,,,0.00,weatherlink.com 1.10,2013-10-04 23:31:00,
2013-10-04 19:46:00,73.8,71.0,30.07,SW,223,0.0,0.0,92,0.00,,,0.00,weatherlink.com 1.10,2013-10-04 23:46:00,
2013-10-04 20:01:00,73.3,71.0,30.08,SW,223,0.0,0.0,93,0.00,,,0.00,weatherlink.com 1.10,2013-10-05 00:01:00,
2013-10-04 20:16:00,73.0,71.0,30.08,SW,223,0.0,0.0,94,0.00,,,0.00,weatherlink.com 1.10,2013-10-05 00:16:00,
2013-10-04 20:31:00,72.6,71.0,30.08,SW,223,0.0,0.0,95,0.00,,,0.00,weatherlink.com 1.10,2013-10-05 00:31:00,
2013-10-04 20:46:00,71.9,71.0,30.09,SW,223,0.0,0.0,95,0.00,,,0.00,weatherlink.com 1.10,2013-10-05 00:46:00,
2013-10-04 21:01:00,71.9,71.0,30.09,SW,223,0.0,0.0,96,0.00,,,0.00,weatherlink.com 1.10,2013-10-05 01:01:00,
2013-10-04 21:16:00,71.4,70.0,30.09,SW,223,0.0,0.0,96,0.00,,,0.00,weatherlink.com 1.10,2013-10-05 01:16:00,
2013-10-04 21:31:00,71.2,70.0,30.09,SW,223,0.0,0.0,96,0.00,,,0.00,weatherlink.com 1.10,2013-10-05 01:31:00,
2013-10-04 21:46:00,70.8,70.0,30.10,SW,223,0.0,0.0,96,0.00,,,0.00,weatherlink.com 1.10,2013-10-05 01:46:00,
2013-10-04 22:01:00,70.5,70.0,30.10,SW,223,0.0,0.0,97,0.00,,,0.00,weatherlink.com 1.10,2013-10-05 02:01:00,
2013-10-04 22:16:00,70.2,69.0,30.10,SW,223,0.0,0.0,97,0.00,,,0.00,weatherlink.com 1.10,2013-10-05 02:16:00,
2013-10-04 22:31:00,70.1,69.0,30.11,SW,223,0.0,0.0,97,0.00,,,0.00,weatherlink.com 1.10,2013-10-05 02:31:00,
2013-10-04 22:46:00,69.9,69.0,30.11,SW,223,0.0,0.0,97,0.00,,,0.00,weatherlink.com 1.10,2013-10-05 02:46:00,
2013-10-04 23:01:00,69.6,69.0,30.11,SW,223,0.0,0.0,97,0.00,,,0.00,weatherlink.com 1.10,2013-10-05 03:01:00,
2013-10-04 23:16:00,69.4,69.0,30.11,SW,223,0.0,0.0,97,0.00,,,0.00,weatherlink.com 1.10,2013-10-05 03:16:00,
2013-10-04 23:31:00,69.0,68.0,30.11,SW,223,0.0,0.0,97,0.00,,,0.00,weatherlink.com 1.10,2013-10-05 03:31:00,
2013-10-04 23:46:00,68.9,68.0,30.11,SW,223,0.0,0.0,97,0.00,,,0.00,weatherlink.com 1.10,2013-10-05 03:46:00,